Texarkana, AR

6:54 AM CDT on October 22, 2019 (GMT -0500)
Texarkana Regional-Webb

Weather History for KTXK - September, 2019

Change the Weather History Date:

Monday, September 23, 2019

  Actual Average Record
Temperature  
Mean Temperature 81 °F 72 °F  
Max Temperature 88 °F 84 °F 99 °F (1936)
Min Temperature 74 °F 61 °F 40 °F (1897)
Degree Days  
Heating Degree Days 0 1  
Month to date heating degree days 0 2  
Since 1 July heating degree days 0 2  
Cooling Degree Days 16 8  
Month to date cooling degree days 417 259  
Year to date cooling degree days 2225 2047  
Growing Degree Days 30 (Base 50)    
Moisture  
Dew Point 73 °F    
Average Humidity 79    
Maximum Humidity 94    
Minimum Humidity 63    
Precipitation  
Precipitation T in 0.11 in 3.27 in (1955)
Month to date precipitation 0.92 2.59  
Year to date precipitation 42.53 34.01  
Snow  
Snow 0.00 in - - ()
Month to date snowfall 0.0  
Since 1 July snowfall 0.0  
Since 1 September snowfall 0.0  
Snow Depth 0.00 in    
Sea Level Pressure  
Sea Level Pressure 30.03 in    
Wind  
Wind Speed 4 mph (SW)    
Max Wind Speed 10 mph    
Max Gust Speed 14 mph    
Visibility 10 miles    
Events Rain    
T = Trace of Precipitation, MM = Missing Value Source: NWS Daily Summary

Daily Weather History Graph

Daily Weather History Graph

Search for Another Location

Airport or City:

Astronomy

Sep. 23, 2019 Rise Set
Actual Time 7:04 AM CDT 7:11 PM CDT
Civil Twilight 6:39 AM CDT 7:36 PM CDT
Nautical Twilight 6:10 AM CDT 8:05 PM CDT
Astronomical Twilight 5:41 AM CDT 8:34 PM CDT
Moon 1:07 AM CDT (9/23) 3:47 PM CDT (9/23)
Length of Visible Light 12h 56m
Length of Day
12h 06m
Waning Crescent, 33% of the Moon is Illuminated
Sep 23
Waning Crescent
Sep 28
New
Oct 5
First Quarter
Oct 13
Full
Oct 21
Last Quarter

Hourly Weather History & Observations

Time (CDT) Temp. Heat Index Dew Point Humidity Pressure Visibility Wind Dir Wind Speed Gust Speed Precip Events Conditions
12:53 AM 75.9 °F - 71.1 °F 85% 30.01 in 10.0 mi South 6.9 mph - N/A   Clear
1:53 AM 75.9 °F - 71.1 °F 85% 30.01 in 10.0 mi South 6.9 mph - N/A   Clear
2:53 AM 75.0 °F - 71.1 °F 87% 30.00 in 10.0 mi SSW 6.9 mph - N/A   Clear
3:53 AM 75.0 °F - 72.0 °F 90% 30.01 in 10.0 mi South 5.8 mph - N/A   Clear
4:53 AM 73.9 °F - 71.1 °F 91% 30.01 in 10.0 mi SSW 8.1 mph - N/A   Clear
5:53 AM 73.9 °F - 72.0 °F 93% 30.02 in 10.0 mi SW 5.8 mph - N/A   Scattered Clouds
6:53 AM 73.9 °F - 72.0 °F 93% 30.04 in 10.0 mi SSW 4.6 mph - N/A   Mostly Cloudy
7:45 AM 75.0 °F - 72.0 °F 90% 30.07 in 10.0 mi SSW 3.5 mph - N/A   Overcast
7:53 AM 75.0 °F - 72.0 °F 90% 30.05 in 10.0 mi SSW 4.6 mph - N/A   Overcast
8:19 AM 75.9 °F - 73.0 °F 91% 30.08 in 10.0 mi SSW 6.9 mph - N/A   Overcast
8:50 AM 77.0 °F - 71.6 °F 83% 30.08 in 10.0 mi Variable 4.6 mph - N/A   Overcast
8:53 AM 77.0 °F - 72.0 °F 84% 30.07 in 10.0 mi SW 3.5 mph - N/A   Overcast
9:50 AM 80.6 °F 85.4 °F 73.4 °F 79% 30.09 in 10.0 mi WSW 9.2 mph - N/A   Overcast
9:53 AM 80.1 °F 84.2 °F 73.0 °F 79% 30.08 in 10.0 mi West 8.1 mph - N/A   Overcast
10:53 AM 81.0 °F 85.8 °F 73.0 °F 77% 30.09 in 10.0 mi WSW 8.1 mph - N/A   Overcast
11:53 AM 82.0 °F 86.7 °F 72.0 °F 71% 30.08 in 10.0 mi West 5.8 mph - N/A   Overcast
12:53 PM 84.0 °F 89.6 °F 72.0 °F 67% 30.06 in 10.0 mi SW 4.6 mph - N/A   Overcast
1:11 PM 84.0 °F 89.6 °F 72.0 °F 67% 30.07 in 10.0 mi NW 4.6 mph - N/A   Overcast
1:53 PM 87.1 °F 94.5 °F 73.0 °F 63% 30.04 in 10.0 mi Calm Calm - N/A   Mostly Cloudy
2:10 PM 86.0 °F 93.0 °F 73.0 °F 65% 30.05 in 10.0 mi Variable 4.6 mph - N/A   Mostly Cloudy
2:19 PM 87.1 °F 95.4 °F 73.9 °F 65% 30.04 in 10.0 mi NNW 8.1 mph - N/A   Mostly Cloudy
2:38 PM 86.0 °F 93.0 °F 73.0 °F 65% 30.03 in 10.0 mi NNE 3.5 mph - N/A   Mostly Cloudy
2:53 PM 86.0 °F 93.0 °F 73.0 °F 65% 30.01 in 10.0 mi Variable 3.5 mph - N/A   Scattered Clouds
3:15 PM 86.0 °F 93.0 °F 73.0 °F 65% 30.02 in 10.0 mi North 6.9 mph - N/A   Mostly Cloudy
3:53 PM 86.0 °F 93.0 °F 73.0 °F 65% 30.00 in 10.0 mi NNE 3.5 mph - 0.00 in Rain Light Rain
4:53 PM 84.9 °F 92.1 °F 73.9 °F 69% 29.99 in 10.0 mi Variable 4.6 mph - 0.00 in   Clear
5:53 PM 84.9 °F 91.4 °F 73.0 °F 67% 29.97 in 10.0 mi Calm Calm - N/A   Clear
6:53 PM 82.9 °F 90.2 °F 75.0 °F 77% 29.97 in 10.0 mi Calm Calm - N/A   Clear
7:53 PM 78.1 °F - 73.9 °F 87% 29.98 in 10.0 mi Calm Calm - N/A   Clear
8:53 PM 79.0 °F - 73.0 °F 82% 29.98 in 10.0 mi Calm Calm - N/A   Clear
9:53 PM 78.1 °F - 73.0 °F 84% 29.99 in 10.0 mi ESE 3.5 mph - N/A   Clear
10:53 PM 79.0 °F - 73.0 °F 82% 29.99 in 10.0 mi ESE 4.6 mph - N/A   Clear
11:53 PM 75.0 °F - 73.0 °F 94% 29.99 in 10.0 mi ENE 4.6 mph - N/A   Clear